Location: Lafig�re
(44.4503°N, 4.0357°E)
Time: 04:24:43
(UTC+00:00)

Transit 2A Rocket - Pass Details

Date: 27 June 2021
Orbit: 590 x 913 km, 66.7° (Epoch: 26 July)

Event Time Altitude Azimuth Distance (km) Brightness Sun altitude
Exits shadow 23:21:01 10° 254° (WSW) 1,968 7.0 -22.0°
Reaches altitude 10° 23:21:07 10° 255° (WSW) 1,930 7.0 -22.0°
Maximum altitude 23:24:48 27° 314° (NW) 1,189 6.5 -22.1°
Drops below altitude 10° 23:28:40 10° 13° (NNE) 2,027 8.2 -22.1°
Sets 23:31:20 0° 25° (NNE) 2,988 9.1 -22.2°
